THURAYA-4

Last updated on Sun Feb 02 2025 00:02:03 GMT+0000 (Coordinated Universal Time)

1 62483U 25001A 25031.26288702 -.00000297 00000+0 00000+0 0 9994 2 62483 16.4825 317.3268 7356548 184.3363 161.0669 1.16876655 360
UTC large
Height (km)
Speed (km/s)
/
Latitude / Longitude
Inclination (degrees)
Orbital Period (minutes)
Azimuth
Elevation
Range (km)
Doppler Factor

Next 0 passes for location: London (51.5072 / 0.1276)

Sorry there are no passes over London.